SSEC Globe Logo

Space Science and Engineering Center

Surface Aviation Observations

KAIG 282015Z AUTO 35004KT 10SM CLR M12/M17 A3014 RMK AO2
     T11161167=
KAIG 282015Z AUTO 35004KT 10SM CLR M12/M17 A3014 RMK AO2
     T11161167=
KAIG 281955Z AUTO 00000KT 10SM CLR M11/M17 A3014 RMK AO2
     T11151168=
KAIG 281955Z AUTO 00000KT 10SM CLR M11/M17 A3014 RMK AO2
     T11151168=
KC29 282015Z AUTO 05006KT 5SM SCT011 SCT024 OVC044 M08/M10
     A3014 RMK AO1 T10761102=
KC29 282015Z AUTO 05006KT 5SM SCT011 SCT024 OVC044 M08/M10
     A3014 RMK AO1 T10761102=
KC29 281955Z AUTO 04006KT 4SM SCT033 BKN046 OVC060 M08/M10
     A3015 RMK AO1 T10781105=
KC29 281955Z AUTO 04006KT 4SM SCT033 BKN046 OVC060 M08/M10
     A3015 RMK AO1 T10781105=
KBCK 282015Z AUTO 34006KT 10SM CLR M11/M16 A3020 RMK AO2
     T11061161=
KBCK 282015Z AUTO 34006KT 10SM CLR M11/M16 A3020 RMK AO2
     T11061161=
KBCK 281955Z AUTO 01005KT 10SM CLR M11/M16 A3020 RMK AO2
     T11071160=
KBCK 281955Z AUTO 01005KT 10SM CLR M11/M16 A3020 RMK AO2
     T11071160=
KUBE 282015Z AUTO 01003KT 10SM CLR M13/M17 A3022 RMK AO2=
KUBE 282015Z AUTO 01003KT 10SM CLR M13/M17 A3022 RMK AO2=
KUBE 281955Z AUTO 35005KT 10SM CLR M13/M17 A3022 RMK AO2=
KUBE 281955Z AUTO 35005KT 10SM CLR M13/M17 A3022 RMK AO2=
KPVB 282015Z AUTO 04010KT 2 1/2SM OVC025 M08/M11 A3011 RMK
     AO1 T10801107=
KPVB 282015Z AUTO 04010KT 2 1/2SM OVC025 M08/M11 A3011 RMK
     AO1 T10801107=
KEZS 282015Z AUTO 00000KT 10SM CLR M08/M14 A3018 RMK AO2
     T10761141=
KEZS 282015Z AUTO 00000KT 10SM CLR M08/M14 A3018 RMK AO2
     T10761141=
KEZS 281955Z AUTO 00000KT 10SM CLR M07/M14 A3018 RMK AO2
     T10701139=
KEZS 281955Z AUTO 00000KT 10SM CLR M07/M14 A3018 RMK AO2
     T10701139=
METAR ZZZZ 282020Z AUTO VRB06KT 9999 -SN BKN033 OVC041
     M06/M09 A2898 RMK AO1 SLP 810=
METAR ZZZZ 282010Z AUTO 27007KT 230V300 9999 -SN FEW035
     OVC041 M06/M08 A2898 RMK AO1 SLP810 GRID18007KT
     140V210=
METAR ZZZZ 282000Z AUTO 23009KT 9000 -SN SCT031 OVC038
     M06/M08 A2899 RMK AO1 SLP 811 GRID14009KT=
METAR ZZZZ 281950Z AUTO 23009KT 9999 UP OVC035 M05/M08 A2898
     RMK AO1 SLP808 GRID 14009KT=
KARV 282015Z AUTO 30004KT 10SM BKN023 M13/M18 A3014 RMK AO2
     T11301180=
KARV 282015Z AUTO 30004KT 10SM BKN023 M13/M18 A3014 RMK AO2
     T11301180=
KARV 281955Z AUTO 00000KT 10SM OVC023 M13/M18 A3014 RMK AO2
     T11301179=
KARV 281955Z AUTO 00000KT 10SM OVC023 M13/M18 A3014 RMK AO2
     T11301179=
KASX 281953Z AUTO 20007KT 10SM FEW025 M14/M18 A3025 RMK AO2
     SLP267 T11391183=
KASX 281953Z AUTO 20007KT 10SM FEW025 M14/M18 A3025 RMK AO2
     SLP267 T11391183=
KATW 281945Z 00000KT 10SM OVC070 M09/M16 A3016=
KATW 281945Z 00000KT 10SM OVC070 M09/M16 A3016=
KAUW 281954Z AUTO 28005KT 10SM CLR M11/M17 A3015 RMK AO2
     SLP239 T11061172=
KAUW 281954Z AUTO 28005KT 10SM CLR M11/M17 A3015 RMK AO2
     SLP239 T11061172=
KBUU 282015Z AUTO 04006KT 3SM SCT011 SCT026 OVC032 M07/M09
     A3014 RMK AO2 T10721092 PWINO=
KBUU 282015Z AUTO 04006KT 3SM SCT011 SCT026 OVC032 M07/M09
     A3014 RMK AO2 T10721092 PWINO=
KBUU 281955Z AUTO 02006KT 2SM SCT011 BKN034 OVC040 M07/M09
     A3014 RMK AO2 T10721094 PWINO=
KBUU 281955Z AUTO 02006KT 2SM SCT011 BKN034 OVC040 M07/M09
     A3014 RMK AO2 T10721094 PWINO=
KCLI 282015Z AUTO 00000KT 10SM SCT120 M10/M16 A3020 RMK AO2
     T10961159=
KCLI 282015Z AUTO 00000KT 10SM SCT120 M10/M16 A3020 RMK AO2
     T10961159=
KCLI 281955Z AUTO 00000KT 10SM SCT120 M09/M16 A3020 RMK AO2
     T10941156=
KCLI 281955Z AUTO 00000KT 10SM SCT120 M09/M16 A3020 RMK AO2
     T10941156=
KCMY 281955Z AUTO 00000KT 10SM BKN048 BKN055 M10/M16 A3017
     RMK AO2 SLP241 T11011158 FZRANO $=
KCWA 281947Z 35004KT 10SM OVC120 M11/M17 A3016=
KCWA 281947Z 35004KT 10SM OVC120 M11/M17 A3016=
KDLL 282015Z AUTO 02004KT 1 1/2SM -SN OVC010 M09/M11 A3014
     RMK AO2 T10871108=
KDLL 282015Z AUTO 02004KT 1 1/2SM -SN OVC010 M09/M11 A3014
     RMK AO2 T10871108=
KDLL 281955Z AUTO 02003KT 1 1/2SM -SN OVC013 M09/M11 A3014
     RMK AO2 T10861109=
KDLL 281955Z AUTO 02003KT 1 1/2SM -SN OVC013 M09/M11 A3014
     RMK AO2 T10861109=
KEAU 281956Z 35008KT 10SM CLR M13/M19 A3023 RMK AO2 SLP260
     T11331194=
KEAU 281956Z 35008KT 10SM CLR M13/M19 A3023 RMK AO2 SLP260
     T11331194=
KEFT 282015Z AUTO 04008KT 5SM -SN SCT008 BKN018 OVC026
     M08/M10 A3009 RMK AO2 T10821102=
KEFT 282015Z AUTO 04008KT 5SM -SN SCT008 BKN018 OVC026
     M08/M10 A3009 RMK AO2 T10821102=
KEFT 281955Z AUTO 03012KT 5SM -SN SCT008 OVC020 M08/M10
     A3009 RMK AO2 T10801102=
KEFT 281955Z AUTO 03012KT 5SM -SN SCT008 OVC020 M08/M10
     A3009 RMK AO2 T10801102=
KEGV 282015Z AUTO 35004KT 10SM OVC025 M12/M18 A3013 RMK AO2
     T11171177=
KEGV 282015Z AUTO 35004KT 10SM OVC025 M12/M18 A3013 RMK AO2
     T11171177=
KEGV 281955Z AUTO 35003KT 10SM OVC025 M12/M18 A3013 RMK AO2
     T11201179=
KEGV 281955Z AUTO 35003KT 10SM OVC025 M12/M18 A3013 RMK AO2
     T11201179=
KENW 281953Z 03006KT 1 3/4SM -SN BKN038 OVC048 M06/M09 A3014
     RMK AO2 SLP220 P0000 T10611094=
KENW 281953Z 03006KT 1 3/4SM -SN BKN038 OVC048 M06/M09 A3014
     RMK AO2 SLP220 P0000 T10611094=
KENW 281949Z 02006KT 2SM -SN FEW031 SCT038 OVC048 M06/M09
     A3014 RMK AO2 P0000=
KETB 282015Z AUTO 01004KT 7SM -SN SCT029 OVC034 M08/M11
     A3015 RMK AO2=
KETB 282015Z AUTO 01004KT 7SM -SN SCT029 OVC034 M08/M11
     A3015 RMK AO2=
KETB 281955Z AUTO 35005KT 7SM -SN BKN031 OVC037 M08/M11
     A3016 RMK AO2=
KETB 281955Z AUTO 35005KT 7SM -SN BKN031 OVC037 M08/M11
     A3016 RMK AO2=
KFLD 282016Z AUTO 34006KT 4SM -SN BKN037 OVC045 M09/M13
     A3017 RMK AO2 P0000 T10891133=
KFLD 282007Z AUTO 36006KT 2 1/2SM -SN BKN033 OVC048 M09/M13
     A3016 RMK AO2 P0000 T10891128=
KFLD 281953Z AUTO 34004KT 2SM -SN BKN026 OVC034 M09/M13
     A3017 RMK AO2 SLP233 P0000 T10891128=
KFLD 281953Z AUTO 34004KT 2SM -SN BKN026 OVC034 M09/M13
     A3017 RMK AO2 SLP233 P0000 T10891128=
KFLD 281951Z AUTO 35005KT 2SM -SN BKN026 OVC034 M09/M13
     A3017 RMK AO2 P0000=
KGRB 281953Z 00000KT 10SM FEW095 M08/M14 A3020 RMK AO2
     SLP239 T10781144=
KGRB 281953Z 00000KT 10SM FEW095 M08/M14 A3020 RMK AO2
     SLP239 T10781144=
KHYR 281953Z AUTO 00000KT 10SM CLR M14/M20 A3022 RMK AO2
     SLP266 T11441200=
KHYR 281953Z AUTO 00000KT 10SM CLR M14/M20 A3022 RMK AO2
     SLP266 T11441200=
KISW 281954Z AUTO 33005KT 10SM SCT065 M11/M17 A3019 RMK AO2
     SLP247 T11111167=
KISW 281954Z AUTO 33005KT 10SM SCT065 M11/M17 A3019 RMK AO2
     SLP247 T11111167=
KJVL 281945Z 03009KT 2SM -SN OVC007 M07/M09 A3013=
KJVL 281945Z 03009KT 2SM -SN OVC007 M07/M09 A3013=
KLNL 282015Z AUTO 33003KT 10SM OVC024 M11/M17 A3015 RMK AO2
     T11151172=
KLNL 282015Z AUTO 33003KT 10SM OVC024 M11/M17 A3015 RMK AO2
     T11151172=
KLNL 281955Z AUTO 36006KT 10SM OVC024 M12/M17 A3014 RMK AO2
     T11181175=
KLNL 281955Z AUTO 36006KT 10SM OVC024 M12/M17 A3014 RMK AO2
     T11181175=
KLNR 282021Z AUTO 03006KT 1/2SM SN BKN023 OVC028 M08/M12
     A3016 RMK AO2 P0000 T10831117=
KLNR 282011Z AUTO 04005KT 1SM -SN BKN025 OVC032 M08/M12
     A3016 RMK AO2 P0000 T10781117=
KLNR 281956Z AUTO 02007KT 3/4SM -SN OVC023 M08/M12 A3016 RMK
     AO2 SLP222 P0000 T10781117=
KLNR 281956Z AUTO 02007KT 3/4SM -SN OVC023 M08/M12 A3016 RMK
     AO2 SLP222 P0000 T10781117=
KLSE 281953Z 32010KT 10SM BKN050 OVC070 M09/M16 A3020 RMK
     AO2 SLP249 T10941156=
KLSE 281953Z 32010KT 10SM BKN050 OVC070 M09/M16 A3020 RMK
     AO2 SLP249 T10941156=
KLUM 282015Z AUTO 33008KT 10SM CLR M12/M16 A3024 RMK AO2
     T11221156=
KLUM 282015Z AUTO 33008KT 10SM CLR M12/M16 A3024 RMK AO2
     T11221156=
KLUM 281955Z AUTO 30007KT 10SM CLR M12/M15 A3024 RMK AO2
     T11201154=
KLUM 281955Z AUTO 30007KT 10SM CLR M12/M15 A3024 RMK AO2
     T11201154=
KMDZ 282015Z AUTO 00000KT 10SM CLR M13/M18 A3015 RMK AO2
     T11301177 PWINO=
KMDZ 282015Z AUTO 00000KT 10SM CLR M13/M18 A3015 RMK AO2
     T11301177 PWINO=
KMDZ 281955Z AUTO 00000KT 10SM CLR M13/M18 A3015 RMK AO2
     T11311176 PWINO=
KMDZ 281955Z AUTO 00000KT 10SM CLR M13/M18 A3015 RMK AO2
     T11311176 PWINO=
KMFI 281954Z AUTO 33004KT 10SM CLR M12/M17 A3015 RMK AO2
     SLP242 T11221172=
KMFI 281954Z AUTO 33004KT 10SM CLR M12/M17 A3015 RMK AO2
     SLP242 T11221172=
KMKE 282019Z 03005KT 1SM R01L/P6000FT -SN FEW009 BKN021
     OVC035 M06/M09 A3015 RMK AO2 P0001 T10561094=
KMKE 281952Z 02007KT 1/2SM R01L/6000VP6000FT SN OVC014
     M06/M09 A3015 RMK AO2 TWR VIS 1 SLP222 SNINCR 1/3 P0003
     T10561094=
KMKE 281952Z 02007KT 1/2SM R01L/6000VP6000FT SN OVC014
     M06/M09 A3015 RMK AO2 TWR VIS 1 SLP222 SNINCR 1/3 P0003
     T10561094=
KMSN 282000Z 04007KT 2SM -SN FEW013 BKN033 OVC044 M08/M12
     A3014=
KMSN 282000Z 04007KT 2SM -SN FEW013 BKN033 OVC044 M08/M12
     A3014 RMK AO2 TWR VIS 2 1/2 P0000 T10831117=
KMSN 281953Z 04008KT 2 1/2SM -SN FEW014 BKN027 OVC041
     M08/M12 A3014 RMK AO2 SFC VIS 3 SLP224 P0002 T10831122=
KMSN 281953Z 04008KT 2 1/2SM -SN FEW014 BKN027 OVC041
     M08/M12 A3014 RMK AO2 SFC VIS 3 SLP224 P0002 T10831122=
KMTW 281956Z AUTO 35006KT 10SM OVC070 M07/M14 A3020 RMK AO2
     SLP238 T10721139 FZRANO=
KMTW 281956Z AUTO 35006KT 10SM OVC070 M07/M14 A3020 RMK AO2
     SLP238 T10721139 FZRANO=
KMWC 281945Z 03005KT 1 1/12SM -SN BKN015 OVC019 M07/M11
     A3017=
KMWC 281945Z 03005KT 1 1/12SM -SN BKN015 OVC019 M07/M11
     A3017=
KOEO 282015Z AUTO 34005KT 10SM CLR M15/M19 A3029 RMK AO2
     T11481192=
KOEO 282015Z AUTO 34005KT 10SM CLR M15/M19 A3029 RMK AO2
     T11481192=
KOEO 281955Z AUTO 31004KT 10SM CLR M15/M19 A3030 RMK AO2
     T11491190=
KOEO 281955Z AUTO 31004KT 10SM CLR M15/M19 A3030 RMK AO2
     T11491190=
KOSH 281953Z 00000KT 10SM FEW048 BKN060 OVC070 M08/M15 A3017
     RMK AO2 SLP243 T10831150 $=
KOSH 281953Z 00000KT 10SM FEW048 BKN060 OVC070 M08/M15 A3017
     RMK AO2 SLP243 T10831150 $=
KOVS 282013Z AUTO 02006KT 1SM -SN VV018 M07/M11 A3016 RMK
     AO2 P0000 T10721111=
KOVS 281953Z AUTO 03005KT 1 1/2SM -SN FEW014 OVC019 M07/M11
     A3016 RMK AO2 SLP228 P0000 T10721111=
KOVS 281953Z AUTO 03005KT 1 1/2SM -SN FEW014 OVC019 M07/M11
     A3016 RMK AO2 SLP228 P0000 T10721111=
KPBH 282015Z AUTO 03004KT 10SM OVC019 M14/M18 A3016 RMK AO2
     T11361180=
KPBH 282015Z AUTO 03004KT 10SM OVC019 M14/M18 A3016 RMK AO2
     T11361180=
KPBH 281955Z AUTO 00000KT 10SM OVC019 M14/M18 A3016 RMK AO2
     T11371181=
KPBH 281955Z AUTO 00000KT 10SM OVC019 M14/M18 A3016 RMK AO2
     T11371181=
KPCZ 282015Z AUTO 00000KT 10SM BKN060 BKN070 BKN080 M08/M16
     A3019 RMK AO2 T10811156=
KPCZ 282015Z AUTO 00000KT 10SM BKN060 BKN070 BKN080 M08/M16
     A3019 RMK AO2 T10811156=
KPCZ 281955Z AUTO 00000KT 10SM SCT065 BKN070 M08/M16 A3019
     RMK AO2 T10821156=
KPCZ 281955Z AUTO 00000KT 10SM SCT065 BKN070 M08/M16 A3019
     RMK AO2 T10821156=
KPDC 282015Z AUTO 01005KT 2SM UP OVC013 M08/M11 A3015 RMK
     AO2 T10811112=
KPDC 282015Z AUTO 01005KT 2SM UP OVC013 M08/M11 A3015 RMK
     AO2 T10811112=
KPDC 281955Z AUTO 35003KT 1 3/4SM -SN BKN009 OVC016 M08/M11
     A3016 RMK AO2 T10811112=
KPDC 281955Z AUTO 35003KT 1 3/4SM -SN BKN009 OVC016 M08/M11
     A3016 RMK AO2 T10811112=
KRAC 282006Z AUTO 02006KT 1 3/4SM -SN FEW032 BKN043 OVC055
     M06/M09 A3017 RMK AO2 P0000 T10611089=
KRAC 281957Z AUTO 02006KT 3SM -SN BKN036 OVC055 M06/M09
     A3017 RMK AO2 P0000 T10611094=
KRAC 281953Z AUTO 01006KT 2SM -SN FEW008 BKN027 OVC055
     M06/M09 A3017 RMK AO2 SLP227 P0002 T10611094=
KRAC 281953Z AUTO 01006KT 2SM -SN FEW008 BKN027 OVC055
     M06/M09 A3017 RMK AO2 SLP227 P0002 T10611094=
KRCX 282015Z AUTO 31004KT 10SM CLR M13/M17 A3022 RMK AO2
     T11351169=
KRCX 282015Z AUTO 31004KT 10SM CLR M13/M17 A3022 RMK AO2
     T11351169=
KRCX 281955Z AUTO 00000KT 10SM CLR M14/M17 A3022 RMK AO2
     T11361170=
KRCX 281955Z AUTO 00000KT 10SM CLR M14/M17 A3022 RMK AO2
     T11361170=
KRHI 282013Z AUTO 34004KT 10SM SCT026 M12/M18 A3013 RMK AO2
     T11171183 $=
KRHI 281953Z AUTO VRB03KT 10SM BKN025 M11/M17 A3013 RMK AO2
     SLP240 T11111172 $=
KRHI 281953Z AUTO VRB03KT 10SM BKN025 M11/M17 A3013 RMK AO2
     SLP240 T11111172 $=
KRNH 282015Z AUTO 06003KT 10SM CLR M15/M18 A3025 RMK AO2
     T11551185=
KRNH 282015Z AUTO 06003KT 10SM CLR M15/M18 A3025 RMK AO2
     T11551185=
KRNH 281955Z AUTO 00000KT 10SM CLR M15/M18 A3025 RMK AO2
     T11551183=
KRNH 281955Z AUTO 00000KT 10SM CLR M15/M18 A3025 RMK AO2
     T11551183=
KRPD 282035Z AUTO 36004KT 10SM CLR M15/M19 A3024 RMK AO2
     T11511188=
KRPD 282015Z AUTO 35005KT 10SM CLR M15/M19 A3025 RMK AO2
     T11531189=
KRPD 282015Z AUTO 35005KT 10SM CLR M15/M19 A3025 RMK AO2
     T11531189=
KRPD 281955Z AUTO 31004KT 10SM CLR M15/M19 A3025 RMK AO2
     T11511190=
KRPD 281955Z AUTO 31004KT 10SM CLR M15/M19 A3025 RMK AO2
     T11511190=
KRRL 282015Z AUTO 00000KT 10SM CLR M12/M17 A3015 RMK AO2
     T11161171 TSNO=
KRRL 282015Z AUTO 00000KT 10SM CLR M12/M17 A3015 RMK AO2
     T11161171 TSNO=
KRRL 281955Z AUTO 00000KT 10SM CLR M12/M17 A3016 RMK AO2
     T11161171 TSNO=
KRRL 281955Z AUTO 00000KT 10SM CLR M12/M17 A3016 RMK AO2
     T11161171 TSNO=
KRYV 282015Z AUTO 02004KT 2SM -SN SCT014 OVC023 M08/M11
     A3014 RMK AO2 T10821115=
KRYV 282015Z AUTO 02004KT 2SM -SN SCT014 OVC023 M08/M11
     A3014 RMK AO2 T10821115=
KRYV 281955Z AUTO 04006KT 2 1/2SM -SN BKN014 OVC025 M08/M11
     A3015 RMK AO2 T10811115=
KRYV 281955Z AUTO 04006KT 2 1/2SM -SN BKN014 OVC025 M08/M11
     A3015 RMK AO2 T10811115=
KRZN 282015Z AUTO 03005KT 10SM CLR M15/M22 A3026 RMK AO2
     T11461223=
KRZN 282015Z AUTO 03005KT 10SM CLR M15/M22 A3026 RMK AO2
     T11461223=
KRZN 281955Z AUTO 04005KT 10SM CLR M15/M22 A3026 RMK AO2
     T11471222=
KRZN 281955Z AUTO 04005KT 10SM CLR M15/M22 A3026 RMK AO2
     T11471222=
KSBM 282006Z AUTO 35006KT 1 1/2SM -SN BKN035 OVC044 M08/M12
     A3017 RMK AO2 P0000 T10831122=
KSBM 281953Z AUTO 32005KT 2 1/2SM -SN OVC039 M08/M12 A3018
     RMK AO2 SLP233 P0000 T10831122=
KSBM 281953Z AUTO 32005KT 2 1/2SM -SN OVC039 M08/M12 A3018
     RMK AO2 SLP233 P0000 T10831122=
KSTE 282015Z AUTO 04005KT 10SM CLR M09/M18 A3017 RMK AO2
     T10951182=
KSTE 282015Z AUTO 04005KT 10SM CLR M09/M18 A3017 RMK AO2
     T10951182=
KSTE 281955Z AUTO 00000KT 10SM CLR M09/M18 A3017 RMK AO2
     T10941179=
KSTE 281955Z AUTO 00000KT 10SM CLR M09/M18 A3017 RMK AO2
     T10941179=
KSUE 281956Z AUTO 01006KT 10SM CLR M07/M13 A3020 RMK AO2
     SLP239 T10721133 FZRANO=
KSUE 281956Z AUTO 01006KT 10SM CLR M07/M13 A3020 RMK AO2
     SLP239 T10721133 FZRANO=
KSUW 282015Z AUTO 28007KT 10SM CLR M13/M22 A3028 RMK AO2
     T11311220=
KSUW 282015Z AUTO 28007KT 10SM CLR M13/M22 A3028 RMK AO2
     T11311220=
KSUW 281955Z AUTO 27005KT 10SM CLR M13/M22 A3028 RMK AO2
     T11331220=
KSUW 281955Z AUTO 27005KT 10SM CLR M13/M22 A3028 RMK AO2
     T11331220=
KTKV 282015Z AUTO 27003KT 10SM OVC024 M11/M17 A3015 RMK AO2
     T11081166 PWINO=
KTKV 282015Z AUTO 27003KT 10SM OVC024 M11/M17 A3015 RMK AO2
     T11081166 PWINO=
KTKV 281955Z AUTO 00000KT 10SM OVC024 M11/M16 A3016 RMK AO2
     T11101165 PWINO=
KTKV 281955Z AUTO 00000KT 10SM OVC024 M11/M16 A3016 RMK AO2
     T11101165 PWINO=
KUES 281945Z 35006KT 3/4SM -SN OVC014 M08/M11 A3015=
KUES 281945Z 35006KT 3/4SM -SN OVC014 M08/M11 A3015=
KUNU 282015Z AUTO 36004KT 4SM -SN BKN028 OVC036 M09/M12
     A3015 RMK AO2 T10951119=
KUNU 282015Z AUTO 36004KT 4SM -SN BKN028 OVC036 M09/M12
     A3015 RMK AO2 T10951119=
KUNU 281955Z AUTO 01008KT 4SM -SN BKN027 BKN034 OVC040
     M10/M12 A3015 RMK AO2 T10961121=
KUNU 281955Z AUTO 01008KT 4SM -SN BKN027 BKN034 OVC040
     M10/M12 A3015 RMK AO2 T10961121=
KVOK 281955Z AUTO 34006KT 10SM SCT048 OVC060 M10/M16 A3015
     RMK AO2 SLP234 T11001165=
KVOK 281955Z AUTO 34006KT 10SM SCT048 OVC060 M10/M16 A3015
     RMK AO2 SLP234 T11001165=
KVOK 281955Z AUTO 34006KT 10SM SCT048 OVC060 M10/M16 A3015
     RMK AO2 SLP234 T11001165=
METAR KVOK 281955Z AUTO 34006KT 10SM SCT048 OVC060 M10/M16
     A3015 RMK AO2 SLP234 T11001165=
METAR KVOK 281955Z AUTO 34006KT 10SM SCT048 OVC060 M10/M16
     A3015 RMK AO2 SLP234 T11001165=
KY50 281956Z AUTO VRB04KT 10SM OVC060 M07/M15 A3019 RMK AO2
     SLP237 T10721150 FZRANO $=
KY50 281956Z AUTO VRB04KT 10SM OVC060 M07/M15 A3019 RMK AO2
     SLP237 T10721150 FZRANO $=
KY51 282015Z AUTO 36009KT 1 3/4SM OVC027 M10/M12 A3012 RMK
     AO1 T11051120=
KY51 282015Z AUTO 36009KT 1 3/4SM OVC027 M10/M12 A3012 RMK
     AO1 T11051120=
KY51 281955Z AUTO 01009KT 2SM OVC027 M11/M12 A3012 RMK AO1
     T11071125=
KY51 281955Z AUTO 01009KT 2SM OVC027 M11/M12 A3012 RMK AO1
     T11071125=
KY23 282015Z AUTO 00000KT 10SM CLR M14/M19 A3024 RMK AO2
     T11401190=
KY23 282015Z AUTO 00000KT 10SM CLR M14/M19 A3024 RMK AO2
     T11401190=
KY23 281955Z AUTO 30003KT 10SM CLR M14/M19 A3024 RMK AO2
     T11401188=
KY23 281955Z AUTO 30003KT 10SM CLR M14/M19 A3024 RMK AO2
     T11401188=
K3D2 282015Z AUTO 35006KT 10SM CLR M09/M15 A3018 RMK AO2
     T10871151=
K3D2 282015Z AUTO 35006KT 10SM CLR M09/M15 A3018 RMK AO2
     T10871151=
K3D2 281955Z AUTO 35006KT 10SM CLR M09/M15 A3018 RMK AO2
     T10861150=
K3D2 281955Z AUTO 35006KT 10SM CLR M09/M15 A3018 RMK AO2
     T10861150=
K4R5 282015Z AUTO 25005KT 10SM OVC027 M12/M18 A3026 RMK AO2
     T11211183=
K4R5 282015Z AUTO 25005KT 10SM OVC027 M12/M18 A3026 RMK AO2
     T11211183=
K4R5 281955Z AUTO 00000KT 10SM BKN025 M13/M18 A3026 RMK AO2
     T11301180=
K4R5 281955Z AUTO 00000KT 10SM BKN025 M13/M18 A3026 RMK AO2
     T11301180=
KD25 282015Z AUTO 33003KT 10SM OVC023 M13/M18 A3014 RMK AO2
     T11271177=
KD25 282015Z AUTO 33003KT 10SM OVC023 M13/M18 A3014 RMK AO2
     T11271177=
KD25 281955Z AUTO 00000KT 10SM OVC023 M13/M18 A3014 RMK AO2
     T11281182=
KD25 281955Z AUTO 00000KT 10SM OVC023 M13/M18 A3014 RMK AO2
     T11281182=
K82C 282015Z AUTO 32005KT 10SM OVC060 M09/M15 A3016 RMK AO2
     T10941150=
K82C 282015Z AUTO 32005KT 10SM OVC060 M09/M15 A3016 RMK AO2
     T10941150=
K82C 281955Z AUTO 31005KT 10SM SCT049 OVC060 M10/M15 A3017
     RMK AO2 T10961149=
K82C 281955Z AUTO 31005KT 10SM SCT049 OVC060 M10/M15 A3017
     RMK AO2 T10961149=
KOCQ 282015Z AUTO 34004KT 10SM CLR M08/M15 A3020 RMK AO1
     T10821149=
KOCQ 282015Z AUTO 34004KT 10SM CLR M08/M15 A3020 RMK AO1
     T10821149=
KOCQ 281955Z AUTO 02004KT 10SM CLR M08/M15 A3020 RMK AO1
     T10831149=
KOCQ 281955Z AUTO 02004KT 10SM CLR M08/M15 A3020 RMK AO1
     T10831149=
KC35 282015Z AUTO 01006KT 2SM OVC027 M10/M13 A3015 RMK AO2
     T11001131 PWINO=
KC35 282015Z AUTO 01006KT 2SM OVC027 M10/M13 A3015 RMK AO2
     T11001131 PWINO=
KC35 281955Z AUTO 02006KT 1 3/4SM BKN024 OVC030 M10/M13
     A3015 RMK AO2 T11001132 PWINO=
KC35 281955Z AUTO 02006KT 1 3/4SM BKN024 OVC030 M10/M13
     A3015 RMK AO2 T11001132 PWINO=
KOLG 282015Z AUTO 20003KT 10SM CLR M14/M23 A3023 RMK AO1=
KOLG 282015Z AUTO 20003KT 10SM CLR M14/M23 A3023 RMK AO1=
KOLG 281955Z AUTO 00000KT 10SM CLR M14/M22 A3023 RMK AO1=
KOLG 281955Z AUTO 00000KT 10SM CLR M14/M22 A3023 RMK AO1=
K2P2 282015Z AUTO 01004KT 10SM OVC029 M08/M14 A3020 RMK AO2
     T10841137=
K2P2 282015Z AUTO 01004KT 10SM OVC029 M08/M14 A3020 RMK AO2
     T10841137=
K2P2 281955Z AUTO 02006KT 10SM OVC029 M08/M13 A3020 RMK AO2
     T10821135=
K2P2 281955Z AUTO 02006KT 10SM OVC029 M08/M13 A3020 RMK AO2
     T10821135=
KDBQ 281953Z 04014KT 1 1/2SM R36/5000VP6000FT -SN BR SCT030
     OVC040 M08/M11 A3007 RMK AO2 SLP204 P0000 T10831106=
KDBQ 281953Z 04014KT 1 1/2SM R36/5000VP6000FT -SN BR SCT030
     OVC040 M08/M11 A3007 RMK AO2 SLP204 P0000 T10831106=
KRST 281954Z 01008KT 10SM OVC055 M13/M17 A3015 RMK AO2
     UPB1858E50 SLP243 P0000 T11331172=
KRST 281954Z 01008KT 10SM OVC055 M13/M17 A3015 RMK AO2
     UPB1858E50 SLP243 P0000 T11331172=
KMSP 281953Z 36007KT 10SM OVC250 M14/M21 A3027 RMK AO2
     SLP271 T11441206=
KMSP 281953Z 36007KT 10SM OVC250 M14/M21 A3027 RMK AO2
     SLP271 T11441206=
KRFD 281954Z 04007KT 1/2SM SN VV012 M07/M09 A3012 RMK AO2
     SLP212 P0003 T10671094 RVRNO=
KRFD 281954Z 04007KT 1/2SM SN VV012 M07/M09 A3012 RMK AO2
     SLP212 P0003 T10671094 RVRNO=
KORD 282018Z 05010KT 1SM R10L/P6000FT -SN BR FEW008 SCT018
     OVC027 M04/M07 A3010 RMK AO2 P0000 T10441067=
KORD 282010Z 04011KT 3/4SM R10L/2600VP6000FT -SN BR SCT008
     BKN018 OVC027 M04/M07 A3010 RMK AO2 P0000 T10441067=
KORD 281951Z 05010KT 3/4SM R10L/1600VP6000FT -SN BR BKN008
     BKN018 OVC029 M04/M07 A3010 RMK AO2 SLP204 P0003
     T10441067=
KORD 281951Z 05010KT 3/4SM R10L/1600VP6000FT -SN BR BKN008
     BKN018 OVC029 M04/M07 A3010 RMK AO2 SLP204 P0003
     T10441067=